Location: Narragansett
(41.4496°N, 71.4488°W)
Time: 02:01:57
(UTC+00:00)

X-37B - Pass Details

Date: 30 September 2021
Orbit: 385 x 389 km, 45.0° (Epoch: 13 October)

Event Time Altitude Azimuth Distance (km) Brightness Sun altitude
Exits shadow 08:16:15 18° 63° (ENE) 1,026 3.5 -27.5°
Drops below altitude 10° 08:17:17 10° 72° (ENE) 1,413 4.4 -27.3°
Sets 08:19:26 0° 80° (E) 2,269 5.7 -27.0°
